Weather History for Sulphur Springs, TX

Change the Weather History Date:

Wednesday, January 1, 2014

  Actual Average (KGVT) Record (KGVT)
Temperature  
Mean Temperature 48 °F -  
Max Temperature 65 °F 57 °F 78 °F (2006)
Min Temperature 32 °F 40 °F 28 °F (2008)
Degree Days  
Heating Degree Days 16    
Moisture  
Dew Point 38 °F    
Average Humidity 69    
Maximum Humidity 92    
Minimum Humidity 47    
Precipitation  
Precipitation 0.00 in - - ()
Sea Level Pressure  
Sea Level Pressure 30.08 in    
Wind  
Wind Speed 10 mph (SSW)    
Max Wind Speed 28 mph    
Max Gust Speed 34 mph    
Visibility 9 miles    
Events      
Averages and records for this station are not official NWS values.
T = Trace of Precipitation, MM = Missing Value Source: NWS Daily Summary

Daily Weather History Graph

Daily Weather History Graph

Search for Another Location

Airport:

Trip Planner

Search our weather history database for the weather conditions in past years. The results will help you decide how hot, cold, wet, or windy it might be!

Date:

Astronomy

Jan. 01, 2014 Rise Set
Actual Time 7:25 AM CST 5:26 PM CST
Civil Twilight 6:58 AM CST 5:53 PM CST
Nautical Twilight 6:27 AM CST 6:24 PM CST
Astronomical Twilight 5:57 AM CST 6:54 PM CST
Moon 7:20 AM CST (1/1) 6:08 PM CST (1/1)
Length of Visible Light 10h 55m
Length of Day
10h 00m
New Moon, 0% of the Moon is Illuminated
Jan 1
New Moon
Jan 7
First Quarter
Jan 15
Full
Jan 23
Last Quarter
Jan 30
New

Hourly Weather History & Observations

Time (CST) Temp. Windchill Dew Point Humidity Pressure Visibility Wind Dir Wind Speed Gust Speed Precip Events Conditions
12:15 AM 37.8 °F 33.3 °F 29.8 °F 73% 30.25 in 10.0 mi South 5.8 mph - N/A   Clear
12:35 AM 37.6 °F 34.0 °F 30.0 °F 74% 30.25 in 10.0 mi South 4.6 mph - N/A   Clear
12:55 AM 37.0 °F 33.3 °F 30.0 °F 76% 30.25 in 10.0 mi South 4.6 mph - N/A   Clear
1:15 AM 36.9 °F 33.1 °F 30.2 °F 77% 30.23 in 10.0 mi South 4.6 mph - N/A   Clear
1:35 AM 36.5 °F 33.9 °F 30.2 °F 78% 30.24 in 10.0 mi South 3.5 mph - N/A   Clear
1:55 AM 36.3 °F 31.6 °F 30.2 °F 78% 30.22 in 10.0 mi South 5.8 mph - N/A   Clear
2:15 AM 35.1 °F 31.0 °F 30.0 °F 82% 30.22 in 10.0 mi SSE 4.6 mph - N/A   Clear
2:35 AM 35.1 °F 31.0 °F 30.2 °F 82% 30.21 in 10.0 mi South 4.6 mph - N/A   Clear
2:55 AM 34.0 °F 31.0 °F 29.7 °F 84% 30.21 in 10.0 mi SSE 3.5 mph - N/A   Clear
3:15 AM 34.2 °F 30.0 °F 30.0 °F 85% 30.21 in 10.0 mi SSE 4.6 mph - N/A   Clear
3:35 AM 32.5 °F 29.3 °F 29.5 °F 88% 30.19 in 7.0 mi SE 3.5 mph - N/A   Clear
3:55 AM 32.0 °F 27.5 °F 29.8 °F 92% 30.19 in 7.0 mi SSE 4.6 mph - N/A   Clear
4:15 AM 32.0 °F 27.5 °F 29.7 °F 91% 30.18 in 7.0 mi SSE 4.6 mph - N/A   Clear
4:35 AM 33.4 °F 30.4 °F 31.1 °F 91% 30.17 in 7.0 mi SSE 3.5 mph - N/A   Clear
4:55 AM 32.7 °F 27.3 °F 30.7 °F 92% 30.17 in 7.0 mi SSE 5.8 mph - N/A   Clear
5:15 AM 34.3 °F 30.2 °F 32.0 °F 91% 30.17 in 7.0 mi SSE 4.6 mph - N/A   Clear
5:35 AM 34.2 °F 30.0 °F 31.8 °F 91% 30.17 in 7.0 mi South 4.6 mph - N/A   Clear
5:55 AM 33.8 °F 29.6 °F 31.8 °F 92% 30.17 in 7.0 mi SSE 4.6 mph - N/A   Clear
6:15 AM 34.2 °F 29.0 °F 32.0 °F 92% 30.16 in 7.0 mi SSE 5.8 mph - N/A   Clear
6:35 AM 35.1 °F 29.3 °F 32.5 °F 91% 30.16 in 7.0 mi SSE 6.9 mph - N/A   Clear
6:55 AM 35.8 °F 29.4 °F 33.1 °F 90% 30.15 in 7.0 mi South 8.1 mph - N/A   Clear
7:15 AM 36.5 °F 30.3 °F 33.3 °F 88% 30.15 in 7.0 mi South 8.1 mph - N/A   Clear
7:35 AM 36.1 °F 30.6 °F 33.3 °F 89% 30.15 in 7.0 mi South 6.9 mph - N/A   Clear
7:55 AM 36.5 °F 30.3 °F 33.4 °F 89% 30.15 in 7.0 mi South 8.1 mph - N/A   Clear
8:15 AM 37.2 °F 31.9 °F 34.0 °F 88% 30.14 in 7.0 mi South 6.9 mph - N/A   Clear
8:35 AM 38.5 °F 32.1 °F 34.7 °F 86% 30.14 in 7.0 mi South 9.2 mph - N/A   Clear
8:55 AM 40.3 °F 33.9 °F 35.4 °F 83% 30.13 in 7.0 mi South 10.4 mph 16.1 mph N/A   Clear
9:15 AM 42.6 °F 35.6 °F 35.6 °F 76% 30.13 in 7.0 mi South 13.8 mph 19.6 mph N/A   Clear
9:35 AM 45.0 °F 37.9 °F 35.2 °F 69% 30.12 in 10.0 mi SSW 16.1 mph 21.9 mph N/A   Clear
9:55 AM 46.6 °F - 34.7 °F 63% 30.11 in 10.0 mi SSW 15.0 mph 20.7 mph N/A   Clear
10:15 AM 48.4 °F - 34.5 °F 59% 30.11 in 10.0 mi SSW 19.6 mph 24.2 mph N/A   Clear
10:35 AM 49.1 °F - 35.1 °F 58% 30.10 in 10.0 mi South 16.1 mph 23.0 mph N/A   Clear
10:55 AM 50.4 °F - 36.1 °F 58% 30.09 in 10.0 mi SSW 16.1 mph 21.9 mph N/A   Clear
11:15 AM 51.8 °F - 36.7 °F 56% 30.08 in 10.0 mi South 13.8 mph 19.6 mph N/A   Clear
11:35 AM 53.8 °F - 37.6 °F 54% 30.07 in 10.0 mi South 11.5 mph 16.1 mph N/A   Clear
11:55 AM 55.6 °F - 38.1 °F 52% 30.06 in 10.0 mi South 13.8 mph - N/A   Clear
12:15 PM 58.1 °F - 39.4 °F 50% 30.04 in 10.0 mi South 17.3 mph 20.7 mph N/A   Clear
12:35 PM 59.5 °F - 40.5 °F 49% 30.02 in 10.0 mi SSW 16.1 mph - N/A   Clear
12:55 PM 61.2 °F - 41.2 °F 48% 30.01 in 10.0 mi SSW 18.4 mph 23.0 mph N/A   Clear
1:15 PM 62.8 °F - 42.4 °F 47% 29.99 in 10.0 mi SSW 17.3 mph 25.3 mph N/A   Clear
1:35 PM 64.0 °F - 43.7 °F 48% 29.97 in 10.0 mi SSW 18.4 mph 25.3 mph N/A   Clear
1:55 PM 64.4 °F - 44.1 °F 48% 29.95 in 10.0 mi SSW 20.7 mph 32.2 mph N/A   Clear
2:15 PM 64.8 °F - 44.4 °F 48% 29.94 in 10.0 mi SSW 24.2 mph 29.9 mph N/A   Clear
2:35 PM 65.3 °F - 44.6 °F 47% 29.93 in 10.0 mi SSW 23.0 mph 31.1 mph N/A   Clear
2:55 PM 65.5 °F - 44.8 °F 47% 29.93 in 10.0 mi SSW 20.7 mph 27.6 mph N/A   Clear
3:15 PM 65.3 °F - 45.0 °F 48% 29.92 in 10.0 mi SSW 26.5 mph 31.1 mph N/A   Clear
3:35 PM 65.3 °F - 45.1 °F 48% 29.93 in 10.0 mi SSW 25.3 mph 31.1 mph N/A   Clear
3:55 PM 65.1 °F - 45.5 °F 49% 29.93 in 10.0 mi SSW 20.7 mph 28.8 mph N/A   Clear
4:15 PM 64.8 °F - 46.0 °F 51% 29.93 in 10.0 mi SSW 16.1 mph 21.9 mph N/A   Clear
4:35 PM 64.4 °F - 46.4 °F 52% 29.93 in 10.0 mi SSW 15.0 mph 18.4 mph N/A   Clear
4:55 PM 63.7 °F - 46.9 °F 54% 29.92 in 10.0 mi SSW 17.3 mph 23.0 mph N/A   Clear
5:15 PM 62.8 °F - 47.3 °F 57% 29.94 in 10.0 mi SW 10.4 mph - N/A   Clear
5:35 PM 61.5 °F - 47.3 °F 60% 29.94 in 10.0 mi SSW 15.0 mph 19.6 mph N/A   Clear
5:55 PM 61.5 °F - 47.7 °F 60% 29.94 in 10.0 mi SW 10.4 mph - N/A   Clear
6:15 PM 60.4 °F - 47.8 °F 63% 29.95 in 10.0 mi SSW 11.5 mph - N/A   Clear
6:35 PM 59.7 °F - 48.0 °F 65% 29.96 in 10.0 mi SSW 9.2 mph - N/A   Clear
6:55 PM 58.8 °F - 47.8 °F 67% 29.96 in 10.0 mi SSW 8.1 mph - N/A   Clear
7:15 PM 59.4 °F - 48.2 °F 67% 29.96 in 10.0 mi South 8.1 mph - N/A   Clear
7:35 PM 58.5 °F - 48.2 °F 69% 29.96 in 10.0 mi SSW 11.5 mph - N/A   Clear
7:55 PM 58.3 °F - 48.2 °F 69% 29.96 in 10.0 mi South 8.1 mph - N/A   Clear
8:15 PM 57.0 °F - 48.0 °F 72% 29.96 in 10.0 mi South 9.2 mph - N/A   Clear
8:35 PM 56.3 °F - 48.2 °F 74% 29.99 in 10.0 mi SW 9.2 mph - N/A   Scattered Clouds
8:55 PM 56.5 °F - 48.2 °F 74% 30.00 in 10.0 mi WSW 9.2 mph - N/A   Mostly Cloudy
9:15 PM 57.4 °F - 46.9 °F 68% 30.02 in 10.0 mi WNW 17.3 mph 32.2 mph N/A   Scattered Clouds
9:35 PM 53.8 °F - 37.8 °F 55% 30.04 in 10.0 mi NW 19.6 mph 24.2 mph N/A   Clear
9:55 PM 52.0 °F - 36.0 °F 54% 30.05 in 10.0 mi NW 20.7 mph - N/A   Clear
10:15 PM 49.8 °F - 35.1 °F 57% 30.08 in 10.0 mi NW 19.6 mph 32.2 mph N/A   Clear
10:35 PM 46.9 °F - 33.4 °F 59% 30.10 in 10.0 mi NW 25.3 mph 34.5 mph N/A   Clear
10:55 PM 43.9 °F 34.5 °F 32.0 °F 63% 30.12 in 10.0 mi NW 25.3 mph 29.9 mph N/A   Clear
11:15 PM 40.6 °F 29.8 °F 30.0 °F 66% 30.13 in 10.0 mi NW 27.6 mph 33.4 mph N/A   Clear
11:35 PM 39.0 °F 29.0 °F 28.6 °F 66% 30.14 in 10.0 mi NNW 20.7 mph 31.1 mph N/A   Clear
11:55 PM 37.6 °F 27.7 °F 28.2 °F 69% 30.16 in 10.0 mi NNW 18.4 mph 24.2 mph N/A   Clear